Weather History for San Jose, CA

Change the Weather History Date:

Thursday, December 6, 2001

  Actual Average Record
Temperature  
Mean Temperature 58 °F 53 °F  
Max Temperature 64 °F 62 °F 70 °F (1979)
Min Temperature 52 °F 43 °F 30 °F (2013)
Degree Days  
Heating Degree Days 7 12  
Month to date heating degree days 72  
Since 1 July heating degree days 397  
Cooling Degree Days 0 0  
Month to date cooling degree days 0  
Year to date cooling degree days 730  
Growing Degree Days 8 (Base 50)    
Moisture  
Dew Point 52 °F    
Average Humidity 88    
Maximum Humidity 100    
Minimum Humidity 67    
Precipitation  
Precipitation 0.00 in 0.06 in 0.95 in (1992)
Month to date precipitation 0.29  
Year to date precipitation 13.07  
Since 1 July precipitation 3.18  
Sea Level Pressure  
Sea Level Pressure 30.39 in    
Wind  
Wind Speed 5 mph (WNW)    
Max Wind Speed 13 mph    
Max Gust Speed -    
Visibility 8 miles    
Events      
T = Trace of Precipitation, MM = Missing Value Source: NWS Daily Summary

Daily Weather History Graph

Daily Weather History Graph

Search for Another Location

Airport:

Trip Planner

Search our weather history database for the weather conditions in past years. The results will help you decide how hot, cold, wet, or windy it might be!

Date:

Astronomy

Dec. 06, 2001 Rise Set
Actual Time 7:08 AM PST 4:49 PM PST
Civil Twilight 6:39 AM PST 5:18 PM PST
Nautical Twilight 6:06 AM PST 5:51 PM PST
Astronomical Twilight 5:34 AM PST 6:22 PM PST
Moon 11:09 PM PST (12/6) 12:13 PM PST (12/6)
Length of Visible Light 10h 39m
Length of Day
9h 41m
Waning Gibbous, 61% of the Moon is Illuminated
Dec 6
Waning Gibbous
Dec 7
Last Quarter
Dec 14
New
Dec 22
First Quarter
Dec 30
Full

Hourly Weather History & Observations

Time (PST) Temp. Dew Point Humidity Pressure Visibility Wind Dir Wind Speed Gust Speed Precip Events Conditions
12:53 AM 53.1 °F 51.1 °F 93% 30.38 in 10.0 mi South 3.5 mph - N/A   Overcast
1:53 AM 52.0 °F 50.0 °F 93% 30.38 in 9.0 mi ESE 5.8 mph - N/A   Overcast
2:53 AM 53.1 °F 51.1 °F 93% 30.38 in 10.0 mi SSE 5.8 mph - N/A   Overcast
3:53 AM 53.1 °F 51.1 °F 93% 30.38 in 10.0 mi SE 5.8 mph - N/A   Overcast
4:53 AM 53.1 °F 51.1 °F 93% 30.38 in 10.0 mi SSE 4.6 mph - N/A   Overcast
5:53 AM 52.0 °F 51.1 °F 97% 30.38 in 10.0 mi South 4.6 mph - N/A   Mostly Cloudy
6:53 AM 52.0 °F 50.0 °F 93% 30.39 in 10.0 mi SSE 3.5 mph - N/A   Mostly Cloudy
7:53 AM 53.1 °F 51.1 °F 93% 30.40 in 8.0 mi SSE 4.6 mph - N/A   Mostly Cloudy
8:53 AM 55.0 °F 52.0 °F 89% 30.41 in 10.0 mi SE 6.9 mph - N/A   Mostly Cloudy
9:53 AM 57.9 °F 53.1 °F 84% 30.43 in 10.0 mi South 6.9 mph - N/A   Mostly Cloudy
10:53 AM 60.1 °F 52.0 °F 75% 30.43 in 10.0 mi Calm Calm - N/A   Mostly Cloudy
11:53 AM 61.0 °F 52.0 °F 72% 30.41 in 10.0 mi Calm Calm - N/A   Mostly Cloudy
12:53 PM 62.1 °F 53.1 °F 72% 30.40 in 10.0 mi Variable 4.6 mph - N/A   Mostly Cloudy
1:53 PM 63.0 °F 53.1 °F 70% 30.37 in 10.0 mi Calm Calm - N/A   Scattered Clouds
2:53 PM 64.0 °F 53.1 °F 67% 30.36 in 10.0 mi NW 8.1 mph - N/A   Scattered Clouds
3:53 PM 60.1 °F 53.1 °F 78% 30.35 in 10.0 mi NW 12.7 mph - N/A   Scattered Clouds
4:53 PM 59.0 °F 52.0 °F 78% 30.35 in 10.0 mi NNW 8.1 mph - N/A   Scattered Clouds
5:53 PM 55.9 °F 53.1 °F 90% 30.37 in 10.0 mi NW 6.9 mph - N/A   Partly Cloudy
6:21 PM 55.4 °F 53.6 °F 94% 30.38 in 7.0 mi NW 11.5 mph - N/A   Mostly Cloudy
6:53 PM 55.9 °F 54.0 °F 93% 30.38 in 8.0 mi WNW 9.2 mph - N/A   Mostly Cloudy
7:53 PM 55.0 °F 54.0 °F 96% 30.38 in 7.0 mi NNW 8.1 mph - N/A   Mostly Cloudy
8:07 PM 55.4 °F 53.6 °F 94% 30.39 in 7.0 mi NW 8.1 mph - N/A   Mostly Cloudy
8:53 PM 55.0 °F 53.1 °F 93% 30.39 in 5.0 mi WNW 6.9 mph - N/A   Overcast
9:53 PM 54.0 °F 53.1 °F 97% 30.39 in 4.0 mi North 5.8 mph - N/A   Overcast
10:18 PM 53.6 °F 53.6 °F 100% 30.39 in 2.0 mi NNW 6.9 mph - N/A   Overcast
10:53 PM 54.0 °F 53.1 °F 97% 30.38 in 2.0 mi WNW 8.1 mph - N/A   Overcast
11:53 PM 54.0 °F 53.1 °F 97% 30.37 in 2.0 mi NW 9.2 mph - N/A   Overcast